Location: ?
(35.3310°N, 139.4924°E)
Time: 07:15:00
(UTC+00:00)

Daily predictions for brighter satellites

Satellite Brightness Start Highest point End
(mag) Time Altitude Azimuth Time Altitude Azimuth Time Altitude Azimuth
ATLAS 3B R/B 4.1 17:48:54 28° SE 17:49:49 29° ESE 17:55:19 10° NE
ADEOS Rocket 4.4 17:59:27 10° SE 18:04:09 30° ENE 18:08:54 10° N
CZ-2C R/B 4.3 18:10:30 10° NNE 18:12:40 24° NE 18:12:40 24° NE
DELTA 2 R/B (1) 4.5 18:19:43 45° E 18:19:43 45° E 18:23:35 10° ESE
CZ-3 R/B 4.0 18:07:34 40° SW 18:19:43 63° S 18:29:59 10° E
ISS -0.6 18:51:20 10° NNE 18:51:20 10° NNE 18:51:23 10° NNE
Lacrosse 5 rocket 3.7 18:51:50 13° NNE 18:51:50 13° NNE 18:52:18 10° NNE
CENTAUR R/B 3.7 18:54:11 27° NNW 18:54:11 27° NNW 18:58:39 10° NNE
Cosmos 2279 Rocket 3.9 18:52:56 10° NNW 18:59:00 60° W 19:05:03 10° S
Cosmos 44 Rocket 3.4 19:00:18 47° NNW 19:01:49 80° ENE 19:07:00 10° SSE
Cosmos 1833 Rocket 2.6 19:04:57 58° WNW 19:05:03 58° WNW 19:10:38 10° NNE
Cosmos 2228 4.3 19:02:31 10° N 19:06:40 41° E 19:10:48 10° SSE
ERS-2 2.9 19:05:48 10° SSE 19:09:19 52° ENE 19:11:50 18° N
Cosmos 1606 Rocket 4.5 19:11:17 10° N 19:15:39 50° E 19:19:59 10° SSE
H-2A R/B 3.4 19:17:23 10° S 19:19:33 25° SSW 19:19:33 25° SSW
SJ-6F 4.3 19:17:36 10° N 19:21:41 64° WNW 19:22:57 40° SW
METEOR-M 4.4 19:16:24 10° NNE 19:21:45 71° ESE 19:27:03 10° S
Meteor 1-24 Rocket 3.8 19:16:23 10° S 19:21:54 79° E 19:27:41 10° N
CZ-4B R/B 4.2 19:18:55 10° NNE 19:23:03 66° ESE 19:26:56 10° S
ALOS 2.1 19:20:32 10° N 19:25:13 84° WNW 19:29:53 10° SSW
Cosmos 1400 Rocket 4.4 19:21:41 10° N 19:25:18 34° ENE 19:28:50 10° SE
Cosmos 2369 3.9 19:21:27 10° NNW 19:27:07 70° ENE 19:32:43 10° SSE
Cosmos 2082 Rocket 2.1 19:22:05 13° SSW 19:27:10 69° WNW 19:32:46 10° NNE
Cosmos 1656 3.9 19:27:26 27° NW 19:30:12 46° WSW 19:35:35 10° S
Cosmos 220 Rocket 4.2 19:30:00 10° NNW 19:34:26 74° ENE 19:38:49 10° SSE
SL-14 R/B 3.5 19:36:11 10° SSW 19:39:59 46° W 19:43:51 10° N
ATLAS 3B R/B 2.9 19:36:15 22° WSW 19:40:10 46° NW 19:46:31 10° NNE
Cosmos 2084 3.4 19:39:00 23° SW 19:41:30 61° WNW 19:45:50 10° NNE
Cosmos 614 Rocket 4.3 19:36:29 10° S 19:41:36 68° ESE 19:46:41 10° NNE
Okean 1-7 Rocket 4.0 19:38:06 10° S 19:42:37 68° E 19:47:07 10° NNE
Cosmos 1300 2.6 19:39:07 10° N 19:42:56 86° E 19:46:45 10° S
deb Chang Zheng 4 3.5 19:39:43 10° N 19:43:53 56° WNW 19:48:02 10° SSW
Cosmos 1626 3.4 19:46:33 23° NW 19:46:33 23° NW 19:48:33 10° NNW
Cosmos 2251 Rocket 3.6 19:40:05 10° SSW 19:45:18 53° WNW 19:50:32 10° N
CZ-4B R/B 1.4 19:43:20 10° S 19:46:44 58° WSW 19:50:09 10° NNW
Cosmos 2058 Rocket 3.8 19:44:50 10° N 19:49:16 57° E 19:53:38 10° SSE
ADEOS Rocket 3.5 19:44:58 10° SSW 19:49:39 28° W 19:54:21 10° NW
Meteor 2-5 Rocket 4.1 19:46:44 10° SSW 19:52:02 41° WNW 19:57:30 10° N
Cosmos 1892 Rocket 3.5 19:48:33 10° SSW 19:52:49 60° W 19:57:08 10° N
CZ-2C R/B 3.9 19:49:47 10° NNW 19:52:02 17° NW 19:52:02 17° NW
Intercosmos 24 3.9 19:49:56 10° NNW 19:53:23 44° W 19:56:53 10° SSW
SJ-12 3.8 19:50:05 10° N 19:54:12 79° WNW 19:58:16 10° SSW
SL-19 R/B 3.8 19:51:58 10° N 19:54:41 44° WNW 19:57:31 10° SSW
Cosmos 1697 Rocket 2.8 19:49:31 10° NNW 19:55:02 55° WSW 20:00:32 10° S
OE (NEXTSAT) 4.2 19:53:15 22° WSW 19:55:23 81° NNW 19:58:52 10° NE
Cosmos 1461 4.4 19:55:38 20° WNW 19:56:31 21° NW 20:00:03 10° N
Cosmos 1092 Rocket 4.1 19:54:17 10° SSW 20:00:13 50° W 20:06:15 10° N
Cosmos 1689 Rocket 2.3 19:57:26 10° SSE 20:00:20 70° ENE 20:03:16 10° N
Cosmos 1484 Rocket 3.7 19:59:54 10° NNW 20:03:04 25° WNW 20:06:09 10° SW
Cosmos 967 Rocket 4.4 19:56:51 10° NNW 20:03:09 78° WSW 20:09:22 10° SSE
DELTA 2 R/B (1) 4.3 20:00:30 17° W 20:04:11 37° SSW 20:09:20 10° SSE
FENGYUN 3A 4.2 19:59:39 10° N 20:04:34 36° WNW 20:09:29 10° SW
H-2A R/B 3.8 20:03:25 10° NNE 20:07:09 49° E 20:10:53 10° S
SKYMED 2 3.5 20:03:39 10° S 20:07:59 84° WSW 20:12:20 10° NNW
ASTRO F (AKARI) 4.3 20:08:41 10° N 20:12:06 67° WNW 20:15:22 10° SSW
PSLV R/B 3.9 20:10:35 10° S 20:14:46 82° WSW 20:19:00 10° NNW
Meteor PRIRODA 3.7 20:12:33 10° N 20:16:06 53° WNW 20:19:41 10° SSW
Cosmos 2098 Rocket 4.1 20:09:59 10° S 20:16:28 76° E 20:21:41 10° N
Cosmos 1626 Rocket 3.8 20:12:41 10° S 20:17:07 78° E 20:21:36 10° N
Cosmos 1980 Rocket 2.1 20:12:07 10° NNW 20:17:41 70° WSW 20:23:15 10° S
Cosmos 1602 Rocket 4.3 20:15:41 10° S 20:20:00 60° E 20:24:24 10° NNE
USA 290 4.3 20:22:22 11° WNW 20:22:33 11° WNW 20:23:20 10° NW
Cosmos 1655 Rocket 4.4 20:16:24 10° S 20:22:35 70° E 20:28:53 10° NNE
Okean O Rocket 3.9 20:22:34 10° NE 20:26:26 30° E 20:30:17 10° SSE
Meteor 1-31 Rocket 4.2 20:24:52 10° NNW 20:27:36 18° WNW 20:30:20 10° WSW
CZ-4B R/B 3.6 20:25:08 10° N 20:28:52 34° WNW 20:32:45 10° SW
Cosmos 407 Rocket 3.4 20:23:49 10° SSW 20:28:53 66° WNW 20:34:00 10° NNE
Cosmos 2292 Rocket 3.0 20:26:59 10° S 20:29:55 73° E 20:33:20 10° N
Envisat 3.7 20:25:34 10° NNE 20:30:37 62° ESE 20:35:37 10° S
Aureole 3 4.3 20:26:49 10° NNW 20:31:09 46° W 20:36:36 10° SSW
Cosmos 1455 2.9 20:27:34 10° N 20:31:24 58° E 20:35:12 10° SSE
Cosmos 1140 Rocket 3.4 20:27:27 10° SSW 20:32:35 77° WNW 20:37:43 10° NNE
Cosmos 1703 3.9 20:29:07 10° S 20:32:55 60° E 20:36:45 10° NNE
ATLAS 5 CENTAUR R/B 4.1 20:39:50 10° SSW 21:00:33 85° SE 21:05:23 10° NE
